FLOCK 3K-5 (43899 NORAD) Tracking and Keplerian Element Data

This shows tracking and keplerian element data for the satellite.

Feedback or suggestion? Click here.




ElementValue
Catalog43899
NameFLOCK 3K-5
Epoch Orbit392
Epoch Day21.8279092
Epoch Year2019
RAAN291.0305
Inclination97.2999
Eccentricity0.0023512
Argument of Perigee150.5129
Mean Anonmoly209.744
Mean Motion15.23585889
Decay Rate1.037E-05
L11 43899U 18111Z 19021.82790920 .00001037 00000-0 45957-4 0 9990
L22 43899 97.2999 291.0305 0023512 150.5129 209.7440 15.23585889 3920

Live tracking and technical data element details for FLOCK 3K-5 (NORAD 43899). FLOCK 3K-5 can be tracked NOW for your location showing map with azimuth and elevation plus other details from your city location.

Track the satellite on the map from your city or location and see movement details for azimuth, elevation, latitude, longitude, range, height, and movement on the map or in text.







IsCatalogInMostPopularTable: catalog: 43899, numindb: 22
Update: records affected: 1



GetName: 43899 FLOCK 3K-5

Hit Count: updated at: Wed, 23 Jan 2019 03:22:04 GMT